Vertical_Velocity
-0 -0 0 -1 -1 -1 -1 0 -0 -1 -1 -1 -1 -0 -1 -2 -3 0 -3 -1 -1 -1 0 -3 -3 -2 2 -3 -2 -1 2 0 2 0 3 0 1 -1 -5 -1 -1 1 0 0 -0
0 0 0 -0 -1 -0 -1 -1 -1 -0 0 0 -0 -1 0 0 -3 1 -1 1 0 -1 -4 -1 10 -5 6 1 -1 3 1 3 2 1 1 1 -0 5 -0 2 -0 -1 -3 -3 -0
1 -0 -0 0 -0 -0 -0 -0 0 0 -0 -0 -1 -1 -2 -2 -3 -1 1 1 -1 -1 -2 -2 -2 0 -0 -1 -2 -0 2 1 1 1 -2 1 -0 -0 -0 -1 1 3 3 -1 -2
1 1 -0 1 0 0 1 0 -1 -1 -0 0 0 -0 -0 0 6 -2 0 -1 0 1 -4 -1 -4 4 1 1 -2 3 -1 0 1 -1 -0 -0 3 -2 2 -15 -2 -6 2 -2 -3
0 -1 -1 -2 -0 1 1 0 0 -0 -0 1 -0 -1 -2 4 -0 -0 -2 -1 -1 -0 -1 -3 5 -0 1 -1 2 1 0 -1 -1 -1 -2 -0 -2 -4 -5 1 6 -2 -1 -0 -3
0 0 1 1 0 -0 -0 -0 -1 -1 0 -1 -2 -1 -2 5 -1 -2 -2 -2 -0 -4 -2 -3 1 -1 0 -0 2 1 -0 -0 1 -1 -0 3 -5 8 -5 -1 7 -2 -2 3 -0
1 0 1 1 1 -0 -1 -1 -1 0 -1 -1 -1 -1 -3 -2 -2 -1 -2 -2 -1 -1 -1 -1 -1 2 -2 1 -3 1 1 2 0 -2 0 -2 -2 -3 -1 -3 5 -1 1 1 -1
-1 -1 -0 0 -0 -1 -1 -1 -1 -1 -1 -0 -1 -1 1 -1 -1 -2 -1 -2 -1 -2 -2 -2 -1 -3 -2 -3 1 2 2 1 4 1 1 -4 -9 -4 6 -3 -2 -0 -1 2 -2
-1 -1 -1 -1 -1 -0 0 -0 -1 -1 0 0 -1 0 4 -0 -2 -1 -1 -2 -2 -2 -1 -2 -1 2 -1 2 2 1 0 -0 2 -1 0 -1 -4 -1 -2 -0 -0 -1 -1 -1 1
-0 0 0 -1 -2 -2 -1 -0 -1 -0 1 -0 0 4 1 2 -1 -0 -1 -0 -1 -0 -2 -1 -0 1 1 -3 1 1 -1 -2 1 1 3 0 -8 -4 -1 4 -4 -1 1 -0 -2
0 0 -0 -1 -0 -2 -1 -1 -1 0 -2 0 -1 0 -1 -1 -1 -2 -1 -1 -2 0 2 2 0 0 2 1 1 1 2 1 -3 2 1 -1 -1 -5 -5 6 3 -1 -1 1 -1
2 2 1 1 1 1 0 -3 0 1 0 0 -0 -1 -1 -0 1 -1 -1 1 3 1 0 2 0 2 -0 -0 1 1 1 -3 -0 1 4 -1 -9 -3 0 -1 -3 -5 -2 0 9
-2 -2 -1 -1 -1 0 -1 -1 1 0 2 1 -1 0 -0 -0 1 1 -1 -0 2 1 0 2 2 -1 0 -0 3 -1 2 -0 2 -2 -2 1 -4 2 1 -1 -1 3 2 0 2
-1 -1 -1 -1 -1 -0 -1 0 0 1 2 4 2 -1 -1 -1 1 -1 -2 -0 1 1 1 0 2 0 1 0 -0 1 1 1 0 -2 -1 -4 -8 -1 1 0 1 -1 -3 -3 1
-1 0 -1 -3 -0 -2 -0 0 -0 0 -2 2 2 -0 -1 -1 -1 0 -1 -1 0 1 -0 -7 1 1 1 -1 -1 0 1 1 1 1 3 -1 -2 -10 0 2 0 0 -2 -4 -4
-2 -1 -1 -0 1 -0 0 1 -1 0 -10 3 2 1 3 2 1 1 -1 -1 -1 1 2 -0 -1 1 1 0 -0 1 1 2 2 0 -1 -3 -5 -9 -1 -2 1 0 5 -0 -2
-1 -2 -2 -1 -2 -1 -1 -1 -0 1 -0 4 2 0 0 -0 0 1 1 2 -1 1 1 2 0 1 -1 2 1 2 -1 -4 -4 -2 -8 -0 -0 -14 -1 1 -1 -0 0 4 0
-2 -3 0 -1 -1 -0 -0 3 2 -0 1 1 -0 1 -0 1 -0 0 -0 -1 3 -1 0 0 -9 -0 1 1 -0 0 -1 -3 -0 -1 -4 0 -4 -19 0 1 -0 -0 0 2 3
-3 -4 -2 1 -0 -0 -2 2 0 1 1 -0 -1 1 1 1 1 2 -0 0 0 -2 -1 1 -1 1 0 0 -1 3 0 -0 1 -1 4 -5 -3 -6 2 2 1 1 -0 -2 -2
-5 -2 -0 -0 -0 -1 2 -2 -0 -0 0 2 1 -0 0 2 1 3 0 -1 0 0 -1 -2 -3 -0 3 0 0 -2 1 -1 -0 -1 -1 -2 -2 -3 2 2 1 1 -1 -0 -1
-3 -2 0 0 0 1 -0 0 0 -0 -0 3 0 0 -1 2 1 -1 -5 -2 -0 1 1 1 -1 0 -0 -1 -4 1 1 1 -0 -0 0 0 -6 -1 -1 1 0 -0 2 -1 4
-1 1 2 -0 3 0 0 1 -1 0 -2 1 0 1 1 -0 0 1 -1 2 0 -3 -0 -1 1 0 -6 3 -0 -0 -0 -3 -3 -0 -1 1 -14 1 -0 0 2 4 2 4 6
-1 -4 -2 1 1 -1 1 1 -1 2 -1 1 -0 0 0 0 1 2 -0 1 -1 0 0 -3 -3 -1 -5 2 -1 -1 -0 -0 -1 1 -5 6 -12 1 0 -2 1 1 0 5 11
0 0 1 2 -1 2 0 -2 -0 0 -2 0 0 -1 2 1 -0 -3 -1 1 -3 -2 -2 1 0 -2 -4 -8 -1 1 0 -0 1 3 -5 -9 -11 -7 -1 1 -1 -2 2 6 3
1 -1 1 -2 -2 -1 2 3 -0 -1 1 0 0 1 1 1 -1 -2 -1 -3 2 1 0 3 1 4 -3 -0 2 2 1 -2 4 -10 7 -18 1 -3 4 3 5 6 5 1 -0
0 3 0 -2 -3 4 -2 -5 3 -8 14 -8 8 -3 2 3 2 -1 6 1 1 3 -0 -0 -2 0 -3 -1 3 2 -2 1 -0 -3 3 3 -5 3 5 -1 -5 1 -0 0 0
5 -0 4 -4 -1 6 -6 -8 -4 3 -7 0 3 2 1 -4 3 -1 -1 -1 -3 -1 -1 0 -0 1 -10 0 -0 0 -7 -2 -2 -0 4 4 8 1 -2 0 2 1 1 -1 -1
Height
1510 1510 1511 1512 1512 1512 1512 1513 1513 1513 1514 1514 1514 1513 1512 1510 1511 1510 1508 1508 1506 1506 1505 1504 1504 1505 1506 1506 1505 1505 1507 1503 1503 1504 1507 1508 1510 1510 1511 1512 1512 1513 1514 1515 1516
1512 1512 1512 1512 1513 1513 1513 1513 1513 1514 1514 1514 1514 1514 1512 1511 1511 1511 1510 1507 1506 1505 1505 1505 1506 1506 1506 1507 1507 1505 1505 1505 1505 1506 1506 1507 1509 1508 1510 1510 1511 1511 1512 1513 1514
1515 1514 1514 1514 1514 1514 1514 1514 1514 1514 1515 1515 1514 1514 1513 1511 1512 1512 1510 1509 1507 1505 1505 1505 1506 1506 1507 1507 1507 1505 1508 1505 1507 1508 1509 1508 1508 1508 1508 1508 1507 1508 1508 1511 1514
1517 1516 1515 1515 1515 1515 1515 1515 1515 1515 1515 1515 1514 1513 1513 1513 1516 1513 1511 1510 1508 1506 1506 1506 1506 1506 1505 1506 1507 1507 1507 1508 1508 1509 1509 1509 1507 1506 1506 1505 1504 1505 1506 1507 1510
1518 1517 1517 1516 1516 1516 1516 1516 1516 1516 1516 1516 1515 1514 1514 1514 1515 1513 1511 1510 1508 1507 1506 1506 1506 1506 1505 1506 1506 1505 1508 1509 1509 1509 1509 1508 1506 1506 1501 1501 1501 1502 1505 1505 1507
1519 1519 1518 1518 1517 1517 1517 1517 1517 1517 1517 1517 1516 1515 1515 1515 1514 1513 1511 1510 1509 1508 1507 1506 1507 1507 1507 1508 1508 1507 1507 1507 1507 1508 1508 1507 1504 1504 1495 1496 1499 1500 1502 1504 1505
1521 1520 1520 1519 1519 1519 1518 1518 1518 1518 1517 1517 1516 1516 1515 1517 1513 1512 1511 1510 1509 1508 1508 1507 1507 1508 1508 1507 1508 1507 1508 1504 1504 1506 1506 1505 1501 1495 1491 1495 1496 1498 1500 1502 1503
1524 1522 1521 1520 1520 1519 1519 1519 1518 1518 1517 1517 1516 1516 1515 1515 1513 1512 1511 1510 1510 1509 1509 1508 1508 1508 1508 1508 1507 1507 1505 1506 1500 1503 1504 1506 1503 1485 1489 1492 1494 1496 1498 1500 1501
1525 1524 1522 1521 1520 1520 1519 1519 1518 1517 1517 1517 1517 1516 1515 1514 1513 1512 1511 1510 1510 1509 1509 1509 1508 1509 1508 1507 1507 1504 1508 1500 1500 1500 1502 1504 1498 1488 1488 1489 1489 1491 1494 1497 1498
1526 1524 1522 1521 1519 1519 1518 1518 1517 1517 1516 1516 1516 1519 1516 1515 1513 1512 1510 1510 1510 1510 1510 1509 1509 1508 1506 1507 1519 1512 1509 1505 1504 1500 1501 1500 1490 1486 1484 1483 1483 1487 1489 1491 1494
1527 1524 1522 1519 1518 1518 1517 1517 1519 1518 1516 1516 1516 1515 1514 1513 1512 1511 1510 1510 1510 1511 1509 1508 1512 1509 1507 1508 1509 1510 1511 1509 1497 1499 1501 1496 1486 1477 1475 1475 1477 1481 1484 1486 1488
1528 1525 1522 1519 1518 1517 1516 1517 1518 1519 1516 1514 1513 1513 1513 1512 1512 1511 1511 1511 1510 1509 1507 1510 1511 1506 1507 1509 1510 1509 1511 1504 1495 1497 1500 1491 1483 1470 1466 1468 1471 1475 1479 1483 1486
1529 1526 1523 1520 1519 1518 1517 1517 1517 1518 1517 1514 1513 1513 1513 1513 1511 1511 1511 1510 1508 1507 1505 1510 1507 1507 1508 1507 1507 1504 1504 1503 1508 1501 1491 1493 1483 1467 1469 1470 1471 1473 1476 1480 1483
1531 1527 1524 1521 1522 1519 1518 1518 1518 1518 1517 1514 1513 1513 1512 1511 1511 1509 1509 1511 1508 1508 1506 1506 1507 1507 1508 1508 1504 1511 1505 1506 1507 1511 1512 1492 1509 1467 1469 1471 1472 1472 1474 1476 1479
1533 1529 1525 1523 1522 1520 1521 1519 1518 1519 1537 1513 1512 1512 1510 1512 1510 1509 1509 1509 1508 1505 1508 1504 1505 1507 1508 1503 1503 1504 1505 1506 1506 1511 1509 1492 1508 1474 1465 1467 1467 1467 1468 1471 1474
1533 1530 1527 1525 1523 1522 1520 1519 1519 1523 1540 1512 1511 1511 1511 1509 1509 1508 1509 1509 1508 1507 1505 1503 1504 1505 1503 1503 1504 1504 1503 1498 1504 1508 1520 1487 1498 1488 1467 1464 1464 1465 1465 1467 1470
1533 1530 1527 1525 1524 1521 1520 1519 1523 1527 1510 1513 1511 1510 1510 1508 1506 1507 1506 1508 1510 1511 1506 1501 1502 1503 1504 1505 1505 1506 1507 1519 1516 1523 1510 1488 1496 1480 1458 1461 1463 1465 1466 1468 1470
1532 1529 1527 1525 1523 1521 1519 1519 1526 1508 1507 1511 1511 1509 1513 1507 1507 1506 1507 1506 1498 1503 1509 1508 1515 1502 1503 1502 1504 1503 1506 1520 1516 1508 1501 1491 1499 1473 1455 1461 1464 1466 1468 1469 1471
1530 1527 1524 1523 1522 1521 1520 1523 1514 1512 1512 1513 1508 1510 1507 1507 1510 1506 1503 1499 1496 1500 1507 1501 1498 1499 1500 1501 1503 1506 1513 1504 1507 1497 1505 1486 1467 1456 1457 1463 1465 1466 1467 1468 1469
1528 1525 1522 1522 1521 1520 1521 1517 1510 1512 1513 1513 1513 1505 1507 1503 1508 1506 1496 1492 1496 1497 1499 1498 1507 1494 1503 1503 1503 1504 1505 1509 1511 1518 1500 1474 1468 1467 1462 1463 1464 1465 1465 1466 1468
1528 1524 1521 1521 1520 1519 1520 1510 1510 1512 1513 1514 1509 1508 1506 1505 1503 1504 1498 1493 1494 1499 1500 1500 1503 1502 1501 1502 1499 1509 1507 1505 1505 1511 1507 1500 1478 1456 1459 1460 1463 1465 1465 1464 1464
1528 1526 1520 1520 1520 1513 1512 1511 1514 1512 1514 1513 1512 1510 1509 1507 1506 1504 1499 1493 1495 1497 1501 1498 1500 1502 1490 1490 1489 1492 1493 1495 1507 1503 1503 1500 1478 1453 1457 1461 1467 1468 1466 1466 1464
1528 1524 1519 1518 1518 1512 1510 1510 1511 1511 1511 1511 1510 1508 1507 1508 1511 1499 1496 1496 1497 1499 1497 1496 1499 1505 1493 1495 1492 1494 1492 1493 1499 1509 1498 1492 1473 1454 1459 1469 1471 1470 1468 1467 1465
1531 1524 1517 1516 1515 1514 1513 1510 1510 1509 1509 1509 1508 1508 1508 1507 1505 1499 1496 1494 1495 1498 1499 1499 1494 1491 1489 1480 1484 1497 1497 1494 1497 1495 1482 1478 1462 1461 1466 1471 1475 1474 1471 1469 1469
1530 1523 1521 1517 1514 1516 1514 1512 1512 1511 1507 1507 1505 1505 1506 1506 1501 1496 1493 1493 1494 1496 1498 1501 1499 1489 1483 1482 1482 1479 1479 1480 1483 1478 1479 1457 1464 1462 1477 1480 1481 1479 1478 1475 1475
1528 1523 1520 1517 1515 1514 1514 1509 1508 1506 1505 1504 1503 1500 1501 1501 1498 1498 1496 1498 1495 1496 1498 1502 1498 1497 1484 1485 1482 1473 1471 1468 1465 1459 1463 1463 1462 1478 1480 1480 1482 1483 1481 1479 1478
1521 1519 1519 1514 1512 1511 1507 1505 1502 1503 1501 1501 1501 1500 1499 1498 1496 1494 1494 1494 1493 1492 1496 1498 1498 1496 1473 1475 1478 1467 1456 1452 1447 1462 1464 1455 1483 1484 1481 1484 1487 1486 1485 1484 1484